This is the latest recevied weather packets stored in our database for station/object N8HON. If no packets are shown the sender has not sent any weather packets the latest 10 day(s).
| Time | Temp. | Humidity | Pressure | Rain* | Wind** | Luminosity | Snow |
|---|---|---|---|---|---|---|---|
| 1778071813 | 12.78° C | 98% | 1007.9 hPa | 0 mm | - | 68 W/m² | - |
| 1778071511 | 12.22° C | 98% | 1007.9 hPa | 0 mm | - | 79 W/m² | - |
| 1778071209 | 12.22° C | 98% | 1008 hPa | 0 mm | - | 65 W/m² | - |
| 1778070906 | 12.22° C | 98% | 1007.7 hPa | 1.78 mm | - | 78 W/m² | - |
| 1778070604 | 12.22° C | 98% | 1008.2 hPa | 1.78 mm | - | 53 W/m² | - |
| 1778070300 | 12.22° C | 98% | 1008.3 hPa | 0 mm | - | 36 W/m² | - |
| 1778069999 | 12.22° C | 98% | 1008.1 hPa | 0 mm | - | 31 W/m² | - |
| 1778069695 | 12.22° C | 97% | 1008 hPa | 1.27 mm | - | 29 W/m² | - |
| 1778069392 | 12.22° C | 97% | 1008.2 hPa | 1.27 mm | - | 32 W/m² | - |
| 1778069090 | 12.22° C | 97% | 1008.2 hPa | 0 mm | - | 36 W/m² | - |
| 1778068787 | 12.22° C | 97% | 1008 hPa | 1.78 mm | - | 46 W/m² | - |
| 1778068485 | 12.22° C | 97% | 1008.2 hPa | 1.78 mm | - | 34 W/m² | - |
| 1778068183 | 11.67° C | 97% | 1008.1 hPa | 1.27 mm | - | 16 W/m² | - |
| 1778067880 | 11.67° C | 96% | 1008 hPa | 3.05 mm | - | 22 W/m² | - |
| 1778067579 | 11.67° C | 96% | 1007.7 hPa | 1.78 mm | - | 17 W/m² | - |
| 1778067276 | 12.22° C | 96% | 1008.1 hPa | 0 mm | - | 11 W/m² | - |
| 1778066972 | 12.22° C | 95% | 1008.3 hPa | 1.27 mm | - | 10 W/m² | - |
| 1778066670 | 12.22° C | 95% | 1008.1 hPa | 1.27 mm | - | 8 W/m² | - |
| 1778066367 | 12.22° C | 94% | 1008.1 hPa | 1.78 mm | - | 6 W/m² | - |
| 1778066066 | 12.22° C | 94% | 1008.2 hPa | 1.78 mm | - | 16 W/m² | - |
| 1778065762 | 12.22° C | 94% | 1008 hPa | 0 mm | - | 8 W/m² | - |
| 1778065460 | 12.22° C | 93% | 1007.8 hPa | 1.27 mm | - | 5 W/m² | - |
| 1778065156 | 12.22° C | 92% | 1007.8 hPa | 1.27 mm | - | 4 W/m² | - |
| 1778064852 | 12.78° C | 91% | 1007.8 hPa | 1.78 mm | - | 3 W/m² | - |
| 1778064550 | 12.78° C | 91% | 1008.1 hPa | 0 mm | - | 4 W/m² | - |
* Rain latest hour (hover to see other rain measurements)
** Current wind speed in m/s (hover to see current wind gust speed)